SCP
0 0 0 0 0 0 0 0 0 0 0 0 0 0 0 0 0 0 0 0 0 0 0 0 0 0 0 0 0 0 0 0 0 0 0 0 0 0 0 0 0 0 0
0 0 0 0 0 0 0 0 0 0 0 0 0 0 0 0 0 0 0 0 0 0 0 0 0 0 0 0 0 0 0 0 0 0 0 0 0 0 0 0 0 0 0
0 0 0 0 0 0 0 0 0 0 0 0 0 0 0 0 0 0 0 0 0 0 0 0 0 0 0 0 0 0 0 0 0 0 0 0 0 0 0 0 0 0 0
0 0 0 0 0 0 0 0 0 0 0 0 0 0 0 0 0 0 0 0 0 0 0 0 0 0 0 0 0 0 0 0 0 0 0 0 0 0 0 0 0 0 0
0 0 0 0 0 0 0 0 0 0 0 0 0 0 0 0 0 0 0 0 0 0 0 0 0 0 0 0 0 0 0 0 0 0 0 0 0 0 0 0 0 0 0
0 0 0 0 0 0 0 0 0 0 0 0 0 0 0 0 0 0 0 0 0 0 0 0 0 0 0 0 0 0 0 0 0 0 0 0 0 0 0 0 0 0 0
0 0 0 0 0 0 0 0 0 0 0 0 0 0 0 0 0 0 0 0 0 0 0 0 0 0 0 0 0 0 0 0 0 0 0 0 0 0 0 0 0 0 0
0 0 0 0 0 0 0 0 0 0 0 0 0 0 0 0 0 0 0 0 0 0 0 0 0 0 0 0 0 0 0 0 0 0 0 0 0 0 0 0 0 0 0
0 0 0 0 0 0 0 0 0 0 0 0 0 0 0 0 0 0 0 0 0 0 0 0 0 0 0 0 0 0 0 0 0 0 0 0 0 0 0 0 0 0 0
0 0 0 0 0 0 0 0 0 0 0 0 0 0 0 0 0 0 0 0 0 0 0 0 0 0 0 0 0 0 0 0 0 0 0 0 0 0 0 0 0 0 0
0 0 0 0 0 0 0 0 0 0 0 0 0 0 0 0 0 0 0 0 0 0 0 0 0 0 0 0 0 0 0 0 0 0 0 0 0 0 0 0 0 0 0
0 0 0 0 0 0 0 0 0 0 0 0 0 0 0 0 0 0 0 0 0 0 0 0 0 0 0 0 0 0 0 0 0 0 0 0 0 0 0 0 0 0 0
0 0 0 0 0 0 0 0 0 0 0 0 0 0 0 0 0 0 0 0 0 0 0 0 0 0 0 0 0 0 0 0 0 0 0 0 0 0 0 0 0 0 0
0 0 0 0 0 0 0 0 0 0 0 0 0 0 0 0 0 0 0 0 0 0 0 0 0 0 0 0 0 0 0 0 0 0 0 0 0 0 0 0 0 0 0
0 0 0 0 0 0 0 0 0 0 0 0 0 0 0 0 0 0 0 0 0 0 0 0 0 0 0 0 0 0 0 0 0 0 0 0 0 0 0 0 0 0 0
0 0 0 0 0 0 0 0 0 0 0 0 0 0 0 0 0 0 0 0 0 0 0 0 0 0 0 0 0 0 0 0 0 0 0 0 0 0 0 0 0 0 0
0 0 0 0 0 0 0 0 0 0 0 0 0 0 0 0 0 0 0 0 0 0 0 0 0 0 0 0 0 0 0 0 0 0 0 0 0 0 0 0 0 0 0
0 0 0 0 0 0 0 0 0 0 0 0 0 0 0 0 0 0 0 0 0 0 0 0 0 0 0 0 0 0 0 0 0 0 0 0 0 0 0 0 0 0 0
0 0 0 0 0 0 0 0 0 0 0 0 0 0 0 0 0 0 0 0 0 0 0 0 0 0 0 0 0 0 0 0 0 0 0 0 0 0 0 0 0 0 0
0 0 0 0 0 0 0 0 0 0 0 0 0 0 0 0 0 0 0 0 0 0 0 0 0 0 0 0 0 0 0 0 0 0 0 0 0 0 0 0 0 0 0
0 0 0 0 0 0 0 0 0 0 0 0 0 0 0 0 0 0 0 0 0 0 0 0 0 0 0 0 0 0 0 0 0 0 0 0 0 0 0 0 0 0 0
0 0 0 0 0 0 0 0 0 0 0 0 0 0 0 0 0 0 0 0 0 0 0 0 0 0 0 0 0 0 0 0 0 0 0 0 0 0 0 0 0 0 0
0 0 0 0 0 0 0 0 0 0 0 0 0 0 0 0 0 0 0 0 0 0 0 0 0 0 0 0 0 0 0 0 0 0 0 0 0 0 0 0 0 0 0
0 0 0 0 0 0 0 0 0 0 0 0 0 0 0 0 0 0 0 0 0 0 0 0 0 0 0 0 0 0 0 0 0 0 0 0 0 0 0 0 0 0 0
0 0 0 0 0 0 0 0 0 0 0 0 0 0 0 0 0 0 0 0 0 0 0 0 0 0 0 0 0 0 0 0 0 0 0 0 0 0 0 0 0 0 0
0 0 0 0 0 0 0 0 0 0 0 0 0 0 0 0 0 0 0 0 0 0 0 0 0 0 0 0 0 0 0 0 0 0 0 0 0 0 0 0 0 0 0
Wind_Speed
2 2 2 2 2 1 1 1 2 1 1 2 2 3 3 3 3 3 4 4 4 4 4 4 4 3 2 2 2 2 2 2 4 4 2 2 2 2 2 2 2 2 3
2 2 2 2 2 2 2 2 2 2 2 2 2 3 4 4 4 4 4 4 5 5 5 4 5 3 4 3 2 3 3 3 3 4 3 2 2 2 2 3 3 2 3
2 2 2 2 2 3 3 3 2 2 2 2 2 3 4 4 3 4 4 4 4 5 5 5 5 4 5 4 4 4 3 3 2 3 3 2 2 2 2 3 3 2 3
3 2 2 2 2 3 3 3 3 2 2 2 2 3 3 3 3 3 4 4 4 4 4 5 5 5 5 5 4 4 3 3 3 3 3 2 2 2 1 2 3 2 3
3 3 3 3 2 2 3 3 3 3 2 2 2 2 3 3 3 3 3 4 4 4 4 4 5 5 6 5 4 4 4 3 3 3 3 2 2 1 2 1 3 3 3
3 3 3 4 3 3 3 3 3 3 2 2 2 2 3 3 5 5 4 4 4 4 4 4 4 5 5 5 6 5 5 5 5 4 3 4 4 3 2 2 2 1 3
3 3 3 3 4 4 4 4 4 3 3 2 2 2 3 4 5 5 4 3 3 4 4 3 3 3 4 4 4 5 5 6 7 5 5 6 4 3 2 2 3 3 3
3 3 4 4 4 4 4 4 4 3 3 2 2 2 3 4 5 5 4 2 2 3 3 3 4 4 4 4 3 4 4 5 5 4 5 5 4 3 4 4 3 2 2
4 4 4 4 4 4 4 4 4 3 3 3 2 2 3 3 4 4 3 1 2 2 3 3 3 4 5 5 4 4 4 4 4 5 5 4 4 3 2 1 1 1 2
4 4 4 4 4 4 4 4 4 3 3 3 2 2 3 3 4 4 3 1 2 2 2 3 4 4 5 5 4 4 5 4 3 3 3 3 3 2 2 2 2 2 2
4 4 4 4 4 4 4 4 4 3 3 2 2 2 2 3 4 5 4 1 1 2 2 2 3 5 6 6 5 4 6 4 3 3 2 1 1 1 1 1 1 2 3
4 4 4 4 4 3 3 4 3 2 2 2 2 2 2 2 3 5 6 5 3 2 2 3 3 5 6 6 5 5 6 4 2 2 2 2 1 1 1 1 1 1 2
3 4 4 4 4 4 3 3 2 2 1 2 2 2 3 3 3 6 6 6 5 3 2 4 5 5 5 4 4 4 2 2 2 2 2 2 2 2 1 0 0 0 1
3 4 4 3 4 3 3 2 2 2 1 2 2 3 3 3 3 3 3 4 4 3 2 3 4 4 3 3 2 2 1 1 2 2 2 1 0 1 1 1 1 1 0
3 3 4 3 3 3 3 2 2 2 2 2 2 2 2 3 5 8 6 4 3 3 3 2 1 1 2 2 2 1 1 0 1 1 1 1 1 1 1 1 1 1 1
3 3 3 3 3 2 2 3 4 4 6 5 5 4 4 6 8 8 8 7 6 5 2 1 1 1 1 1 1 1 1 1 1 1 1 1 1 1 1 1 1 1 1
3 3 3 3 2 2 2 2 3 5 6 6 7 7 7 8 8 8 7 6 5 4 2 1 1 2 1 1 1 1 2 1 1 1 1 1 1 1 1 1 1 1 1
3 4 3 3 2 2 1 1 1 2 4 4 5 7 8 9 8 8 6 4 3 2 2 1 2 2 2 2 1 1 1 1 1 1 1 1 1 1 1 1 1 2 2
3 3 2 2 2 1 1 1 1 2 2 3 3 5 6 7 7 7 5 2 1 2 2 2 2 2 2 2 2 2 1 1 1 1 1 1 1 1 2 2 2 2 2
3 3 2 2 1 1 1 1 1 2 2 2 3 3 3 3 3 3 3 2 1 2 2 2 2 2 2 2 1 1 2 2 1 1 1 1 1 2 2 2 2 2 2
2 2 2 1 1 1 1 1 2 2 2 2 3 3 5 2 2 2 2 2 2 2 2 2 2 2 1 1 1 1 2 2 2 1 1 1 1 2 2 2 2 2 2
1 1 1 1 1 1 1 2 2 2 2 3 3 3 5 3 2 2 2 2 2 2 2 2 2 2 2 2 2 2 2 2 2 2 2 2 2 2 2 2 2 2 2
1 1 1 1 1 1 2 2 2 2 2 2 3 3 2 2 2 3 3 3 3 2 2 2 2 2 2 2 2 2 3 3 3 2 2 2 2 2 2 2 3 2 2
1 1 2 1 1 1 2 2 2 2 2 2 3 3 3 3 3 3 3 3 3 3 3 2 3 4 4 3 3 3 3 3 3 3 3 3 3 2 2 2 2 3 3
1 2 2 2 2 2 2 2 2 2 2 3 3 3 3 3 3 3 3 3 3 3 4 4 3 3 5 5 5 4 5 5 4 3 3 3 3 3 3 3 2 2 2
2 2 2 2 2 2 2 2 2 3 3 3 3 3 3 3 3 3 3 3 3 3 4 4 4 5 6 5 6 6 6 6 5 5 3 2 3 3 2 2 3 2 2
Wind_Direction
360 347 335 317 299 277 272 268 271 260 241 240 249 253 245 240 237 236 238 227 228 235 235 232 239 240 245 249 254 254 253 245 263 285 297 315 309 299 314 303 296 272 268
354 351 343 339 333 311 290 278 273 256 248 250 253 256 252 247 241 237 241 239 233 231 230 231 238 239 242 242 242 247 247 241 246 273 292 309 301 294 305 302 301 287 278
353 349 346 348 343 323 310 303 295 271 260 257 252 253 256 253 248 244 243 246 243 237 232 230 234 231 236 237 236 239 247 249 246 254 275 286 295 314 320 314 307 302 294
347 340 338 336 326 318 320 314 306 289 269 260 259 257 257 257 255 253 250 248 245 248 247 240 236 232 234 234 235 236 241 244 244 248 264 281 292 310 310 306 309 307 301
341 337 335 336 332 334 330 318 315 300 283 270 266 270 270 260 255 264 256 246 244 246 252 253 247 248 243 236 239 238 230 231 238 241 251 265 271 288 269 282 277 294 286
340 337 343 345 344 341 331 326 323 308 301 287 274 274 272 269 270 269 265 241 240 243 250 257 259 249 245 243 248 246 238 230 231 234 244 248 253 253 256 253 258 290 282
345 344 347 344 340 335 334 332 323 315 311 294 285 286 281 282 282 275 270 249 237 240 247 251 261 260 242 241 248 253 254 255 244 236 239 244 245 233 221 234 240 241 249
351 345 345 344 337 334 333 327 319 314 308 302 297 292 292 297 299 293 285 268 257 256 251 246 251 260 250 238 232 242 250 255 253 245 244 251 250 235 217 222 233 255 285
348 341 340 337 332 328 325 321 315 312 310 305 307 307 301 302 303 297 293 279 277 279 277 269 260 258 264 250 230 233 250 264 270 260 261 270 276 264 234 187 186 212 260
332 329 330 328 322 316 315 315 314 311 310 314 318 320 309 309 315 313 314 304 286 290 290 281 276 272 269 261 238 226 239 252 248 259 267 278 278 272 241 206 196 207 233
327 328 330 327 319 316 316 316 319 319 318 317 324 329 325 322 318 325 325 322 286 292 290 291 289 284 277 269 261 244 244 248 237 227 235 253 267 263 254 246 225 210 212
330 330 328 326 325 325 322 318 319 318 317 322 331 330 327 326 330 327 329 326 324 294 289 294 297 297 290 282 272 265 258 251 231 214 221 233 237 243 249 238 232 235 233
328 324 322 324 329 329 321 317 325 332 333 331 333 323 324 327 327 327 322 321 320 315 299 303 307 306 303 294 289 290 276 221 206 214 225 238 234 223 207 220 258 250 285
317 316 319 322 325 328 322 321 323 320 326 330 324 317 320 322 325 324 314 312 315 322 323 317 316 320 320 318 314 306 266 221 213 220 224 239 232 196 202 205 222 218 288
312 310 313 313 313 316 323 321 313 308 306 300 292 294 304 308 316 321 320 317 321 320 338 344 342 336 335 334 332 325 309 216 210 212 203 215 229 222 231 220 204 200 219
299 303 302 302 306 311 319 334 345 342 344 342 336 328 321 320 320 320 326 337 340 347 11 350 329 320 305 304 314 318 315 276 249 204 202 222 230 223 220 220 211 204 224
270 283 288 291 291 296 308 318 328 343 347 347 347 344 340 337 335 333 337 348 358 16 25 340 321 317 317 317 308 305 300 294 291 237 213 224 235 230 210 213 219 224 239
260 265 265 271 272 272 275 282 296 312 323 326 334 340 343 344 345 347 351 7 6 14 360 325 310 311 315 310 302 301 307 309 306 283 252 232 219 213 211 226 228 229 241
258 259 259 262 262 267 275 281 283 290 296 308 324 334 342 341 348 358 7 21 349 332 325 312 302 297 297 296 300 303 298 289 285 280 262 254 233 215 222 230 234 233 233
261 268 264 248 244 253 265 273 282 285 291 299 310 318 329 344 354 351 357 348 324 305 298 291 291 291 290 289 296 301 301 296 289 272 259 253 250 229 223 226 226 230 236
261 265 261 255 244 252 262 264 271 276 282 290 297 305 323 334 324 315 313 310 302 295 293 289 288 286 280 277 279 280 279 283 287 278 260 252 246 245 239 228 229 233 236
256 258 257 254 263 269 275 276 274 274 279 289 303 312 322 331 317 307 301 300 297 291 289 287 285 281 272 264 259 260 264 266 268 274 270 261 249 243 241 235 227 227 227
260 262 265 264 255 264 275 272 269 271 278 284 291 300 304 300 299 299 296 296 299 297 292 282 278 282 281 274 262 252 255 258 256 247 246 241 242 242 237 232 225 223 229
273 265 264 268 267 260 259 267 271 274 275 278 281 282 285 286 289 295 297 291 293 293 291 283 273 274 278 278 272 264 260 265 263 248 236 225 231 239 237 239 235 229 229
267 262 261 261 260 260 263 268 272 275 276 277 278 281 285 285 286 288 294 293 289 289 290 289 280 275 274 274 274 272 272 271 268 257 233 217 225 230 234 239 239 234 225
285 275 266 262 260 260 261 266 270 272 273 275 276 277 279 281 284 288 293 298 297 291 290 287 285 285 282 276 273 275 272 268 265 255 231 214 220 230 228 235 236 229 222